DW6123 Weather Reports


time (UTC)temp
C
wind
direction
speed
KPH
gust
KPH
rain 1hr
cm
rain 24hr
cm
rain mn
cm
humidity
%
barometer
mb
20260505152701 12 190 0.0 0.0 0.00 0.00 0.00 85 1016.0
20260505152201 12 190 0.0 0.0 0.00 0.00 0.00 85 1016.0
20260505151704 12 195 0.0 0.0 0.00 0.00 0.00 85 1016.1
20260505150652 12 159 0.0 1.6 0.00 0.00 0.00 85 1016.0
20260505140137 12 162 0.0 0.0 0.00 0.00 0.00 86 1015.4
20260505124623 12 191 0.0 0.0 0.00 0.00 0.00 85 1015.0
20260505124123 12 191 0.0 0.0 0.00 0.00 0.00 85 1015.0
20260505123121 12 199 0.0 0.0 0.00 0.00 0.00 85 1014.9
20260505122618 12 208 0.0 0.0 0.00 0.00 0.00 85 1014.9
20260505122113 12 211 0.0 0.0 0.00 0.00 0.00 85 1014.9
20260505121610 12 211 0.0 0.0 0.00 0.00 0.00 85 1014.9
20260505121109 12 187 0.0 0.0 0.00 0.00 0.00 85 1014.9
20260505120609 12 186 0.0 0.0 0.00 0.00 0.00 85 1014.9
20260505120109 12 187 0.0 0.0 0.00 0.00 0.00 85 1014.8
20260505115609 12 187 0.0 0.0 0.00 0.00 0.00 85 1014.9
20260505115107 12 187 0.0 0.0 0.00 0.00 0.00 84 1014.9
20260505114607 12 200 0.0 0.0 0.00 0.00 0.00 84 1014.9
20260505114108 12 201 0.0 0.0 0.00 0.00 0.00 84 1014.9
20260505113601 12 156 0.0 0.0 0.00 0.00 0.00 84 1014.8
20260505113102 12 172 0.0 1.6 0.00 0.00 0.00 84 1014.9
20260505112559 12 172 0.0 1.6 0.00 0.00 0.00 84 1014.8
20260505112059 12 172 0.0 0.0 0.00 0.00 0.00 84 1014.8
20260505111557 12 172 0.0 1.6 0.00 0.00 0.00 84 1014.8
20260505111058 12 171 0.0 1.6 0.00 0.00 0.00 84 1014.7
20260505110555 12 172 0.0 1.6 0.00 0.00 0.00 84 1014.7
20260505101547 12 140 0.0 0.0 0.00 0.00 0.00 83 1014.3
20260505101047 12 140 0.0 1.6 0.00 0.00 0.00 84 1014.3
20260505100544 12 134 0.0 1.6 0.00 0.00 0.00 83 1014.3
20260505100043 12 134 0.0 1.6 0.00 0.00 0.00 83 1014.3
20260505095041 12 134 0.0 3.2 0.00 0.00 0.00 83 1014.3
20260505094541 12 165 0.0 1.6 0.00 0.00 0.00 83 1014.3
20260505094035 12 165 0.0 1.6 0.00 0.00 0.00 83 1014.3
20260505093535 12 167 0.0 1.6 0.00 0.00 0.00 83 1014.2
20260505093035 12 164 0.0 1.6 0.00 0.00 0.00 83 1014.2
20260505092535 12 164 0.0 1.6 0.00 0.00 0.00 82 1014.1
20260505091535 12 167 0.0 1.6 0.00 0.00 0.00 82 1014.1
20260505091035 12 180 0.0 0.0 0.00 0.00 0.00 82 1014.0
20260505090533 13 183 0.0 0.0 0.00 0.00 0.00 82 1014.0
20260505090030 13 190 0.0 0.0 0.00 0.00 0.00 82 1014.0
20260505085530 13 204 0.0 3.2 0.00 0.00 0.00 82 1013.9
20260505085030 13 204 0.0 4.8 0.00 0.00 0.00 81 1013.9
20260505084022 13 145 0.0 1.6 0.00 0.00 0.00 81 1013.8
20260505083515 13 162 0.0 0.0 0.00 0.00 0.00 81 1013.8
20260505083014 13 172 0.0 0.0 0.00 0.00 0.00 81 1013.8
20260505082507 13 172 0.0 0.0 0.00 0.00 0.00 82 1013.7
20260505082005 13 172 0.0 0.0 0.00 0.00 0.00 82 1013.8
20260505081005 13 172 0.0 0.0 0.00 0.00 0.00 82 1013.7
20260505080503 13 172 0.0 0.0 0.00 0.00 0.00 82 1013.6
20260505080003 13 172 0.0 0.0 0.00 0.00 0.00 82 1013.6
20260505074501 13 172 0.0 0.0 0.00 0.00 0.00 82 1013.4
20260505073959 13 172 0.0 1.6 0.00 0.00 0.00 82 1013.3
20260505073458 13 172 0.0 1.6 0.00 0.00 0.00 82 1013.3
20260505072959 13 172 0.0 0.0 0.00 0.00 0.00 82 1013.2
20260505072458 13 172 0.0 0.0 0.00 0.00 0.00 81 1013.1
20260505071951 13 172 0.0 4.8 0.00 0.00 0.00 81 1013.1
20260505070949 13 161 0.0 1.6 0.00 0.00 0.00 80 1013.0
20260505070449 13 161 0.0 1.6 0.00 0.00 0.00 80 1013.0
20260505065949 14 188 0.0 1.6 0.00 0.00 0.00 80 1013.0
20260505065445 14 188 0.0 1.6 0.00 0.00 0.00 80 1013.0
20260505064943 14 161 0.0 0.0 0.00 0.00 0.00 79 1012.8
20260505064444 14 161 0.0 1.6 0.00 0.00 0.00 79 1012.8
20260505063941 15 161 0.0 3.2 0.00 0.00 0.00 79 1012.7
20260505063441 15 161 0.0 4.8 0.00 0.00 0.00 79 1012.6
20260505061935 15 169 0.0 3.2 0.00 0.00 0.00 78 1012.4
20260505060934 15 153 0.0 4.8 0.00 0.00 0.00 77 1012.2
20260505060434 16 148 0.0 4.8 0.00 0.00 0.00 77 1012.2
20260505055932 16 179 1.6 6.4 0.00 0.00 0.00 76 1012.1
20260505055431 16 128 1.6 6.4 0.00 0.00 0.00 76 1012.1
20260505054928 16 188 0.0 3.2 0.00 0.00 0.00 75 1012.2
20260505053924 16 167 0.0 1.6 0.00 0.00 0.00 76 1012.1
20260505053425 16 207 0.0 3.2 0.00 0.00 0.00 76 1012.0
20260505051920 16 179 0.0 0.0 0.00 0.00 0.00 75 1011.8
20260505051418 17 179 0.0 0.0 0.00 0.00 0.00 75 1011.8
20260505050915 17 200 0.0 0.0 0.00 0.00 0.00 75 1011.8
20260505050414 17 200 0.0 0.0 0.00 0.00 0.00 75 1011.8
20260505041355 18 200 0.0 0.0 0.00 0.00 0.00 72 1011.2
20260505040853 18 200 0.0 0.0 0.00 0.00 0.00 72 1011.1
20260505040353 18 200 0.0 0.0 0.00 0.00 0.00 71 1011.1
20260505035847 19 200 0.0 0.0 0.00 0.00 0.00 71 1011.0
20260505035346 19 200 0.0 0.0 0.00 0.00 0.00 70 1010.9
20260505034843 19 200 0.0 0.0 0.00 0.00 0.00 70 1010.8
20260505034343 20 200 0.0 0.0 0.00 0.00 0.00 70 1010.8
20260505033841 20 200 0.0 0.0 0.00 0.00 0.00 70 1010.7
20260505033338 20 200 0.0 4.8 0.00 0.00 0.00 69 1010.6
20260505032338 21 200 1.6 9.7 0.00 0.00 0.00 68 1010.4
20260505031332 21 307 1.6 6.4 0.00 0.00 0.00 67 1010.3
20260505030330 21 139 1.6 9.7 0.00 0.00 0.00 67 1010.2
20260505025827 21 158 3.2 8.0 0.00 0.00 0.00 66 1010.2
20260505025326 22 134 3.2 8.0 0.00 0.00 0.00 66 1010.1
20260505024824 22 131 1.6 8.0 0.00 0.00 0.00 66 1010.0
20260505024323 22 139 1.6 8.0 0.00 0.00 0.00 66 1010.0
20260505023323 22 148 1.6 8.0 0.00 0.00 0.00 64 1009.9
20260505022821 23 145 3.2 8.0 0.00 0.00 0.00 63 1009.9
20260505021317 23 157 1.6 8.0 0.00 0.00 0.00 62 1009.9
20260505020816 23 121 1.6 8.0 0.00 0.00 0.00 62 1009.9
20260505015311 23 146 3.2 8.0 0.00 0.00 0.00 62 1009.9
20260505014805 23 158 1.6 9.7 0.00 0.00 0.00 62 1009.9
20260505014307 23 143 3.2 9.7 0.00 0.00 0.00 62 1009.9
20260505013758 23 146 3.2 9.7 0.00 0.00 0.00 62 1010.0
20260505013258 23 167 4.8 16.1 0.00 0.00 0.00 62 1010.0
20260505012755 23 152 3.2 16.1 0.00 0.00 0.00 62 1010.0
20260505011754 23 126 4.8 9.7 0.00 0.00 0.00 61 1010.1
20260505011253 24 103 3.2 9.7 0.00 0.00 0.00 61 1010.1
20260505010245 24 120 3.2 8.0 0.00 0.00 0.00 60 1010.1
20260505005745 24 163 3.2 12.9 0.00 0.00 0.00 61 1010.2
20260505005245 24 136 3.2 12.9 0.00 0.00 0.00 60 1010.3
20260505004743 24 109 3.2 9.7 0.00 0.00 0.00 61 1010.3
20260505004243 24 162 3.2 8.0 0.00 0.00 0.00 61 1010.3
20260505003741 23 207 3.2 8.0 0.00 0.00 0.00 61 1010.3
20260505003245 23 23 4.8 12.9 0.00 0.00 0.00 62 1010.3
20260505002742 23 91 6.4 12.9 0.00 0.00 0.00 63 1010.3
20260505002239 23 124 4.8 11.3 0.00 0.00 0.00 62 1010.3
20260505001237 23 152 3.2 16.1 0.00 0.00 0.00 61 1010.4
20260505000736 23 193 4.8 14.5 0.00 0.00 0.00 61 1010.5
20260505000236 23 118 4.8 14.5 0.00 0.00 0.00 62 1010.5
20260504235738 23 114 4.8 11.3 0.00 0.00 0.00 61 1010.6
20260504235232 23 134 4.8 12.9 0.00 0.00 0.00 61 1010.6
20260504234227 23 110 3.2 11.3 0.00 0.00 0.00 62 1010.6
20260504233728 23 105 4.8 11.3 0.00 0.00 0.00 61 1010.7
20260504233221 23 139 4.8 11.3 0.00 0.00 0.00 60 1010.6
20260504232718 23 118 3.2 11.3 0.00 0.00 0.00 60 1010.6
20260504232220 23 176 3.2 11.3 0.00 0.00 0.00 60 1010.7
20260504231715 23 150 3.2 8.0 0.00 0.00 0.00 60 1010.7
20260504231215 23 128 3.2 6.4 0.00 0.00 0.00 61 1010.8
20260504230709 23 123 4.8 9.7 0.00 0.00 0.00 58 1010.8
20260504230209 23 141 3.2 9.7 0.00 0.00 0.00 60 1010.8
20260504225709 23 99 1.6 8.0 0.00 0.00 0.00 59 1010.9
20260504225209 23 131 1.6 8.0 0.00 0.00 0.00 59 1011.0
20260504224710 23 148 3.2 9.7 0.00 0.00 0.00 61 1011.0
20260504224203 22 219 3.2 9.7 0.00 0.00 0.00 62 1011.1
20260504223702 22 139 4.8 9.7 0.00 0.00 0.00 62 1011.2
20260504222700 22 139 3.2 9.7 0.00 0.00 0.00 60 1011.3
20260504222159 23 142 3.2 6.4 0.00 0.00 0.00 60 1011.3
20260504220155 22 294 1.6 8.0 0.00 0.00 0.00 61 1011.6
20260504215655 22 162 1.6 6.4 0.00 0.00 0.00 62 1011.7
20260504215157 21 143 3.2 9.7 0.00 0.00 0.00 62 1011.8
20260504214652 21 195 3.2 9.7 0.00 0.00 0.00 63 1011.8
20260504214151 21 159 1.6 6.4 0.00 0.00 0.00 63 1011.8
20260504213651 21 350 3.2 8.0 0.00 0.00 0.00 65 1011.9
20260504213149 20 142 4.8 11.3 0.00 0.00 0.00 66 1012.0
20260504212647 20 231 3.2 11.3 0.00 0.00 0.00 66 1012.1
20260504211645 20 307 3.2 9.7 0.00 0.00 0.00 66 1012.3
20260504211141 20 95 3.2 9.7 0.00 0.00 0.00 67 1012.4
20260504210137 20 150 4.8 11.3 0.00 0.00 0.00 67 1012.5
20260504205635 20 143 3.2 8.0 0.00 0.00 0.00 66 1012.6
20260504205137 20 89 3.2 8.0 0.00 0.00 0.00 68 1012.6
20260504204635 19 148 3.2 11.3 0.00 0.00 0.00 68 1012.7
20260504203633 18 173 4.8 12.9 0.00 0.00 0.00 69 1013.0
20260504202133 18 214 3.2 9.7 0.00 0.00 0.00 69 1013.1
20260504201634 18 139 3.2 8.0 0.00 0.00 0.00 70 1013.1
20260504201132 18 135 4.8 14.5 0.00 0.00 0.00 71 1013.1
20260504200625 17 134 4.8 14.5 0.00 0.00 0.00 72 1013.2
20260504200123 18 115 1.6 9.7 0.00 0.00 0.00 70 1013.3
20260504195622 17 166 3.2 9.7 0.00 0.00 0.00 73 1013.3
20260504195121 17 124 4.8 11.3 0.00 0.00 0.00 72 1013.4
20260504194115 16 129 4.8 16.1 0.00 0.00 0.00 74 1013.4
20260504193614 16 147 3.2 12.9 0.00 0.00 0.00 73 1013.4
20260504192613 16 325 4.8 9.7 0.00 0.00 0.00 77 1013.5
20260504192113 16 120 4.8 11.3 0.00 0.00 0.00 75 1013.5
20260504191613 16 89 3.2 11.3 0.00 0.00 0.00 74 1013.6
20260504191111 16 103 1.6 8.0 0.00 0.00 0.00 75 1013.6
20260504190611 16 198 3.2 8.0 0.00 0.00 0.00 76 1013.6
20260504190111 15 137 3.2 8.0 0.00 0.00 0.00 77 1013.6
20260504185111 15 158 4.8 11.3 0.00 0.00 0.00 78 1013.9
20260504184610 15 58 4.8 12.9 0.00 0.00 0.00 78 1013.9
20260504184111 15 136 4.8 12.9 0.00 0.00 0.00 78 1014.0
20260504183611 15 189 3.2 11.3 0.00 0.00 0.00 78 1013.9
20260504183053 15 143 3.2 11.3 0.00 0.00 0.00 78 1013.8
20260504182049 15 137 3.2 11.3 0.00 0.00 0.00 79 1013.7
20260504181546 14 211 3.2 11.3 0.00 0.00 0.00 79 1013.7
20260504181047 14 113 3.2 8.0 0.00 0.00 0.00 80 1013.8
20260504180545 14 113 3.2 8.0 0.00 0.00 0.00 79 1013.8
20260504180045 14 176 3.2 6.4 0.00 0.00 0.00 80 1013.8
20260504175045 13 136 3.2 11.3 0.00 0.00 0.00 81 1013.8
20260504174545 13 129 4.8 11.3 0.00 0.00 0.00 81 1013.9
20260504174045 13 125 4.8 11.3 0.00 0.00 0.00 81 1013.9
20260504173545 13 122 3.2 11.3 0.00 0.00 0.00 82 1013.9
20260504173044 13 136 6.4 14.5 0.00 0.00 0.00 82 1013.8
20260504172040 13 146 3.2 12.9 0.00 0.00 0.00 81 1013.8
20260504171537 13 165 3.2 9.7 0.00 0.00 0.00 82 1013.7
20260504171037 13 139 3.2 8.0 0.00 0.00 0.00 82 1013.7
20260504170537 13 296 1.6 6.4 0.00 0.00 0.00 82 1013.7